NOAA NWS Hourly Roundups by Site

Regional Weather Roundup for Omaha, NE

To Select Another Site Choose from List

Select Site:  

000
ASUS43 KOAX 191310
RWRNE

WEATHER ROUNDUP FOR NEBRASKA
NATIONAL WEATHER SERVICE OMAHA NE
800 AM CDT SAT OCT 19 2019

NOTES: SATELLITE DATA IS BEING USED TO AUGMENT CLOUD COVER ABOVE
       12000 FEET.
       "FAIR" INDICATES FEW OR NO CLOUDS BELOW 12,000 FEET WITH NO
       SIGNIFICANT WEATHER AND/OR OBSTRUCTIONS TO VISIBILITY.


NEZ001>004-019>022-054>056-191400-
NEBRASKA PANHANDLE

CITY           SKY/WX    TMP DP  RH WIND       PRES   REMARKS
SCOTTSBLUFF    FAIR      32  24  72 NW6       29.88S WCI  26
ALLIANCE       FAIR      22  17  81 W7        29.86S WCI  13
CHADRON        FAIR      25  22  88 SW8       29.85R WCI  16
GORDON         FAIR      28  26  91 W6        29.84S WCI  22
KIMBALL        FAIR      25  17  70 W9        29.91S WCI  15
SIDNEY         FAIR      28  18  66 W7        29.90R WCI  21
$$

NEZ057>060-069>072-079>082-191400-
SOUTHWEST NEBRASKA

CITY           SKY/WX    TMP DP  RH WIND       PRES   REMARKS
NORTH PLATTE   FAIR      29  27  92 NW3       29.86S
IMPERIAL       FAIR      34  24  67 W5        29.89R WCI  30
LEXINGTON      FAIR      35  34  96 W6        29.86S WCI  30
MCCOOK         FAIR      37  34  89 W12       29.88R WCI  29
OGALLALA       FAIR      28  26  96 CALM      29.88S
$$

NEZ005>010-023>029-035>040-094-191400-
NORTH CENTRAL NEBRASKA

CITY           SKY/WX    TMP DP  RH WIND       PRES   REMARKS
VALENTINE      FAIR      31  27  85 W7        29.83R WCI  24
AINSWORTH      FAIR      37  32  85 W7        29.82S WCI  31
BROKEN BOW     FAIR      33  31  92 CALM      29.83S
O`NEILL        FAIR      40  35  82 W7        29.81S
ORD            FAIR      33  32  96 NW5       29.82S WCI  29
THEDFORD       FAIR      32  31  96 W6        29.85S WCI  26
$$

NEZ041-046>049-061>064-073>077-083>087-191400-
SOUTH CENTRAL NEBRASKA

CITY           SKY/WX    TMP DP  RH WIND       PRES   REMARKS
GRAND ISLAND   FAIR      39  35  86 W8        29.83R WCI  33
AURORA         FAIR      42  40  91 W7        29.81S
HASTINGS       FAIR      40  36  86 NW5       29.83R
HEBRON         FAIR      46  43  91 W5        29.81S
HOLDREGE       FAIR      41  38  88 NW8       29.85S
KEARNEY        FAIR      37  34  89 NW9       29.84S WCI  30
YORK           FAIR      41  41 100 NW8       29.81R
$$

NEZ011>018-030>034-042>045-191400-
NORTHEAST NEBRASKA

CITY           SKY/WX    TMP DP  RH WIND       PRES   REMARKS
NORFOLK        FAIR      41  36  82 W5        29.79R
ALBION         FAIR      40  37  87 N7        29.80F
BLAIR          CLOUDY    50  46  84 W3        29.77R
COLUMBUS       FAIR      42  40  92 W6        29.80R
FREMONT        FAIR      47  45  93 W7        29.78R
TEKAMAH        FAIR      48  43  82 NW6       29.77R
WAYNE          FAIR      39  37  92 SW5       29.78S
$$

NEZ050>053-065>068-078-088>093-191400-
SOUTHEAST NEBRASKA

CITY           SKY/WX    TMP DP  RH WIND       PRES   REMARKS
LINCOLN        FAIR      49  44  83 NW5       29.81R
OMAHA EPPLEY   CLOUDY    52  47  83 NW3       29.76S
BEATRICE       FAIR      48  47  95 NW8       29.79R
FALLS CITY     CLOUDY    54  51  90 N5        29.75R
NEBRASKA CITY  MOCLDY   N/A N/A N/A NW3       29.77S
PLATTSMOUTH    CLOUDY    50  49  97 NW5       29.77S
$$

NEZ044-045-051>053-067-191400-
OMAHA AREA

CITY           SKY/WX    TMP DP  RH WIND       PRES   REMARKS
OMAHA EPPLEY   CLOUDY    52  47  83 NW3       29.76S
BLAIR          CLOUDY    50  46  84 W3        29.77R
FREMONT        FAIR      47  45  93 W7        29.78R
MILLARD        CLOUDY    53  49  86 W5        29.78R
OFFUTT AFB     CLOUDY    52  48  87 CALM      29.80R
PLATTSMOUTH    CLOUDY    50  49  97 NW5       29.77S
WAHOO          FAIR      49  45  86 NW7       29.79R
$$


 

View Past Reports for Omaha, NE.

Products Courtesy of NOAA-NWS
NWS Information Parsing Script by Ken True at Saratoga Weather - Script by SE Lincoln Weather.